Time,TemperatureF,DewpointF,PressureIn,WindDirection,WindDirectionDegrees,WindSpeedMPH,WindSpeedGustMPH,Humidity,HourlyPrecipIn,Conditions,Clouds,dailyrainin,SoftwareType,DateUTC
2013-03-23 00:02:00,26.0,18.0,-100.00,SSE,149,15.0,34.0,72,-99.99,,,-99.99,,2013-03-23 00:02:00,
2013-03-23 00:12:00,26.0,18.0,-100.00,SSE,149,15.0,34.0,72,-99.99,,,-99.99,,2013-03-23 00:12:00,
2013-03-23 00:22:00,26.0,18.0,-100.00,SSE,149,15.0,34.0,72,-99.99,,,-99.99,,2013-03-23 00:22:00,
2013-03-23 00:32:00,24.0,18.0,-100.00,SE,145,11.0,27.0,78,-99.99,,,-99.99,,2013-03-23 00:32:00,
2013-03-23 00:42:00,24.0,18.0,-100.00,SE,145,11.0,27.0,78,-99.99,,,-99.99,,2013-03-23 00:42:00,
2013-03-23 00:52:00,25.0,19.0,-100.00,SE,145,11.0,28.0,76,-99.99,,,-99.99,,2013-03-23 00:52:00,
2013-03-23 01:03:00,25.0,18.0,-100.00,SE,131,13.0,29.0,75,-99.99,,,-99.99,,2013-03-23 01:03:00,
2013-03-23 01:11:00,25.0,18.0,-100.00,SE,131,13.0,29.0,75,-99.99,,,-99.99,,2013-03-23 01:11:00,
2013-03-23 01:22:00,26.0,18.0,-100.00,South,184,9.0,24.0,72,-99.99,,,-99.99,,2013-03-23 01:22:00,
2013-03-23 01:32:00,26.0,19.0,-100.00,SE,138,5.0,20.0,73,-99.99,,,-99.99,,2013-03-23 01:32:00,
2013-03-23 01:42:00,26.0,19.0,-100.00,SE,138,5.0,20.0,73,-99.99,,,-99.99,,2013-03-23 01:42:00,
2013-03-23 01:52:00,26.0,17.0,-100.00,South,185,9.0,21.0,69,-99.99,,,-99.99,,2013-03-23 01:52:00,
2013-03-23 02:02:00,26.0,18.0,-100.00,SSE,161,8.0,21.0,70,-99.99,,,-99.99,,2013-03-23 02:02:00,
2013-03-23 02:12:00,26.0,18.0,-100.00,SSE,161,8.0,21.0,70,-99.99,,,-99.99,,2013-03-23 02:12:00,
2013-03-23 02:22:00,27.0,18.0,-100.00,South,175,12.0,20.0,68,-99.99,,,-99.99,,2013-03-23 02:22:00,
2013-03-23 02:31:00,27.0,19.0,-100.00,SSE,157,9.0,21.0,70,-99.99,,,-99.99,,2013-03-23 02:31:00,
2013-03-23 02:42:00,27.0,19.0,-100.00,SSE,157,9.0,21.0,70,-99.99,,,-99.99,,2013-03-23 02:42:00,
2013-03-23 02:52:00,26.0,18.0,-100.00,South,173,9.0,19.0,72,-99.99,,,-99.99,,2013-03-23 02:52:00,
2013-03-23 03:02:00,26.0,18.0,-100.00,South,173,9.0,19.0,72,-99.99,,,-99.99,,2013-03-23 03:02:00,
2013-03-23 03:12:00,26.0,18.0,-100.00,South,173,9.0,19.0,72,-99.99,,,-99.99,,2013-03-23 03:12:00,
2013-03-23 03:22:00,26.0,20.0,-100.00,SSE,147,6.0,15.0,79,-99.99,,,-99.99,,2013-03-23 03:22:00,
2013-03-23 03:33:00,26.0,20.0,-100.00,SSE,147,6.0,15.0,79,-99.99,,,-99.99,,2013-03-23 03:33:00,
2013-03-23 03:43:00,26.0,20.0,-100.00,SSE,147,6.0,15.0,79,-99.99,,,-99.99,,2013-03-23 03:43:00,
2013-03-23 03:52:00,26.0,18.0,-100.00,SSE,168,6.0,20.0,72,-99.99,,,-99.99,,2013-03-23 03:52:00,
2013-03-23 04:02:00,26.0,19.0,-100.00,SSE,166,7.0,20.0,73,-99.99,,,-99.99,,2013-03-23 04:02:00,
2013-03-23 04:12:00,26.0,19.0,-100.00,SSE,166,7.0,20.0,73,-99.99,,,-99.99,,2013-03-23 04:12:00,
2013-03-23 04:22:00,27.0,18.0,-100.00,South,171,6.0,17.0,68,-99.99,,,-99.99,,2013-03-23 04:22:00,
2013-03-23 04:32:00,27.0,17.0,-100.00,South,171,9.0,17.0,65,-99.99,,,-99.99,,2013-03-23 04:32:00,
2013-03-23 04:43:00,27.0,17.0,-100.00,South,171,9.0,17.0,65,-99.99,,,-99.99,,2013-03-23 04:43:00,
2013-03-23 04:52:00,27.0,17.0,-100.00,SE,134,7.0,18.0,65,-99.99,,,-99.99,,2013-03-23 04:52:00,
2013-03-23 05:02:00,26.0,19.0,-100.00,SE,131,11.0,21.0,74,-99.99,,,-99.99,,2013-03-23 05:02:00,
2013-03-23 05:12:00,26.0,19.0,-100.00,SE,131,11.0,21.0,74,-99.99,,,-99.99,,2013-03-23 05:12:00,
2013-03-23 05:22:00,27.0,19.0,-100.00,SSE,152,7.0,20.0,71,-99.99,,,-99.99,,2013-03-23 05:22:00,
2013-03-23 05:32:00,27.0,19.0,-100.00,South,175,10.0,19.0,70,-99.99,,,-99.99,,2013-03-23 05:32:00,
2013-03-23 05:42:00,27.0,19.0,-100.00,South,175,10.0,19.0,70,-99.99,,,-99.99,,2013-03-23 05:42:00,
2013-03-23 05:52:00,27.0,20.0,-100.00,SE,130,7.0,19.0,73,-99.99,,,-99.99,,2013-03-23 05:52:00,
2013-03-23 06:02:00,26.0,18.0,-100.00,SE,126,13.0,24.0,70,-99.99,,,-99.99,,2013-03-23 06:02:00,
2013-03-23 06:12:00,26.0,18.0,-100.00,SE,126,13.0,24.0,70,-99.99,,,-99.99,,2013-03-23 06:12:00,
2013-03-23 06:22:00,26.0,18.0,-100.00,SE,135,15.0,27.0,72,-99.99,,,-99.99,,2013-03-23 06:22:00,
2013-03-23 06:32:00,27.0,19.0,-100.00,SE,140,13.0,28.0,71,-99.99,,,-99.99,,2013-03-23 06:32:00,
2013-03-23 06:42:00,27.0,19.0,-100.00,SE,140,13.0,28.0,71,-99.99,,,-99.99,,2013-03-23 06:42:00,
2013-03-23 06:51:00,27.0,18.0,-100.00,SSE,157,8.0,25.0,67,-99.99,,,-99.99,,2013-03-23 06:51:00,
2013-03-23 07:02:00,28.0,18.0,-100.00,SSE,154,6.0,19.0,65,-99.99,,,-99.99,,2013-03-23 07:02:00,
2013-03-23 07:12:00,28.0,18.0,-100.00,SSE,154,6.0,19.0,65,-99.99,,,-99.99,,2013-03-23 07:12:00,
2013-03-23 07:22:00,28.0,18.0,-100.00,SSE,163,5.0,21.0,67,-99.99,,,-99.99,,2013-03-23 07:22:00,
2013-03-23 07:32:00,27.0,17.0,-100.00,SSE,150,12.0,21.0,66,-99.99,,,-99.99,,2013-03-23 07:32:00,
2013-03-23 07:42:00,27.0,17.0,-100.00,SSE,150,12.0,21.0,66,-99.99,,,-99.99,,2013-03-23 07:42:00,
2013-03-23 07:52:00,27.0,18.0,-100.00,South,178,8.0,24.0,67,-99.99,,,-99.99,,2013-03-23 07:52:00,
2013-03-23 08:02:00,27.0,17.0,-100.00,SSE,166,7.0,21.0,65,-99.99,,,-99.99,,2013-03-23 08:02:00,
2013-03-23 08:12:00,27.0,17.0,-100.00,SSE,166,7.0,21.0,65,-99.99,,,-99.99,,2013-03-23 08:12:00,
2013-03-23 08:22:00,28.0,17.0,-100.00,SSE,165,14.0,25.0,62,-99.99,,,-99.99,,2013-03-23 08:22:00,
2013-03-23 08:32:00,28.0,17.0,-100.00,SE,140,12.0,25.0,64,-99.99,,,-99.99,,2013-03-23 08:32:00,
2013-03-23 08:42:00,28.0,17.0,-100.00,SE,140,12.0,25.0,64,-99.99,,,-99.99,,2013-03-23 08:42:00,
2013-03-23 08:52:00,28.0,16.0,-100.00,South,170,9.0,27.0,61,-99.99,,,-99.99,,2013-03-23 08:52:00,
2013-03-23 09:02:00,28.0,16.0,-100.00,South,170,9.0,27.0,61,-99.99,,,-99.99,,2013-03-23 09:02:00,
2013-03-23 09:12:00,28.0,16.0,-100.00,South,170,9.0,27.0,61,-99.99,,,-99.99,,2013-03-23 09:12:00,
2013-03-23 09:22:00,28.0,17.0,-100.00,South,182,13.0,23.0,62,-99.99,,,-99.99,,2013-03-23 09:22:00,
2013-03-23 09:32:00,28.0,17.0,-100.00,SSE,165,10.0,23.0,62,-99.99,,,-99.99,,2013-03-23 09:32:00,
2013-03-23 09:42:00,28.0,17.0,-100.00,SSE,165,10.0,23.0,62,-99.99,,,-99.99,,2013-03-23 09:42:00,
2013-03-23 09:52:00,28.0,17.0,-100.00,South,180,11.0,21.0,63,-99.99,,,-99.99,,2013-03-23 09:52:00,
2013-03-23 10:03:00,28.0,17.0,-100.00,South,186,3.0,19.0,63,-99.99,,,-99.99,,2013-03-23 10:03:00,
2013-03-23 10:12:00,28.0,17.0,-100.00,South,186,3.0,19.0,63,-99.99,,,-99.99,,2013-03-23 10:12:00,
2013-03-23 10:23:00,27.0,18.0,-100.00,South,176,11.0,21.0,67,-99.99,,,-99.99,,2013-03-23 10:23:00,
2013-03-23 10:33:00,28.0,17.0,-100.00,South,174,8.0,19.0,63,-99.99,,,-99.99,,2013-03-23 10:33:00,
2013-03-23 10:42:00,28.0,17.0,-100.00,South,174,8.0,19.0,63,-99.99,,,-99.99,,2013-03-23 10:42:00,
2013-03-23 10:52:00,27.0,18.0,-100.00,South,190,7.0,18.0,67,-99.99,,,-99.99,,2013-03-23 10:52:00,
2013-03-23 11:02:00,27.0,19.0,-100.00,WSW,241,4.0,19.0,71,-99.99,,,-99.99,,2013-03-23 11:02:00,
2013-03-23 11:12:00,27.0,19.0,-100.00,WSW,241,4.0,19.0,71,-99.99,,,-99.99,,2013-03-23 11:12:00,
2013-03-23 11:22:00,24.0,20.0,-100.00,SSW,195,5.0,16.0,85,-99.99,,,-99.99,,2013-03-23 11:22:00,
2013-03-23 11:32:00,24.0,21.0,-100.00,WSW,240,2.0,8.0,89,-99.99,,,-99.99,,2013-03-23 11:32:00,
2013-03-23 11:42:00,24.0,21.0,-100.00,WSW,240,2.0,8.0,89,-99.99,,,-99.99,,2013-03-23 11:42:00,
2013-03-23 11:51:00,24.0,23.0,-100.00,ESE,117,2.0,9.0,94,-99.99,,,-99.99,,2013-03-23 11:51:00,
2013-03-23 12:02:00,24.0,23.0,-100.00,ESE,117,2.0,9.0,94,-99.99,,,-99.99,,2013-03-23 12:02:00,
2013-03-23 12:12:00,24.0,23.0,-100.00,ESE,117,2.0,9.0,94,-99.99,,,-99.99,,2013-03-23 12:12:00,
2013-03-23 12:22:00,24.0,23.0,-100.00,WSW,243,3.0,8.0,96,-99.99,,,-99.99,,2013-03-23 12:22:00,
2013-03-23 12:33:00,24.0,23.0,-100.00,SW,216,6.0,11.0,97,-99.99,,,-99.99,,2013-03-23 12:33:00,
2013-03-23 12:42:00,24.0,23.0,-100.00,SW,216,6.0,11.0,97,-99.99,,,-99.99,,2013-03-23 12:42:00,
2013-03-23 13:02:00,24.0,24.0,-100.00,SW,227,8.0,19.0,98,-99.99,,,-99.99,,2013-03-23 13:02:00,
2013-03-23 13:11:00,24.0,24.0,-100.00,SW,227,8.0,19.0,98,-99.99,,,-99.99,,2013-03-23 13:11:00,
2013-03-23 13:22:00,24.0,24.0,-100.00,SW,217,4.0,19.0,98,-99.99,,,-99.99,,2013-03-23 13:22:00,
2013-03-23 13:32:00,24.0,24.0,-100.00,SW,216,9.0,20.0,98,-99.99,,,-99.99,,2013-03-23 13:32:00,
2013-03-23 13:42:00,24.0,24.0,-100.00,SW,216,9.0,20.0,98,-99.99,,,-99.99,,2013-03-23 13:42:00,
2013-03-23 13:52:00,24.0,23.0,-100.00,SW,215,6.0,20.0,97,-99.99,,,-99.99,,2013-03-23 13:52:00,
2013-03-23 14:02:00,24.0,24.0,-100.00,SSW,212,6.0,15.0,98,-99.99,,,-99.99,,2013-03-23 14:02:00,
2013-03-23 14:12:00,24.0,24.0,-100.00,SSW,212,6.0,15.0,98,-99.99,,,-99.99,,2013-03-23 14:12:00,
2013-03-23 14:22:00,24.0,24.0,-100.00,SSW,198,4.0,11.0,98,-99.99,,,-99.99,,2013-03-23 14:22:00,
2013-03-23 14:32:00,24.0,24.0,-100.00,SW,215,7.0,14.0,98,-99.99,,,-99.99,,2013-03-23 14:32:00,
2013-03-23 14:42:00,24.0,24.0,-100.00,SW,215,7.0,14.0,98,-99.99,,,-99.99,,2013-03-23 14:42:00,
2013-03-23 14:52:00,25.0,25.0,-100.00,SW,214,13.0,20.0,98,-99.99,,,-99.99,,2013-03-23 14:52:00,
2013-03-23 15:02:00,24.0,24.0,-100.00,SW,222,16.0,28.0,98,-99.99,,,-99.99,,2013-03-23 15:02:00,
2013-03-23 15:12:00,24.0,24.0,-100.00,SW,222,16.0,28.0,98,-99.99,,,-99.99,,2013-03-23 15:12:00,
2013-03-23 15:22:00,24.0,23.0,-100.00,SW,218,19.0,33.0,97,-99.99,,,-99.99,,2013-03-23 15:22:00,
2013-03-23 15:33:00,24.0,21.0,-100.00,SW,217,15.0,31.0,89,-99.99,,,-99.99,,2013-03-23 15:33:00,
2013-03-23 15:43:00,24.0,21.0,-100.00,SW,217,15.0,31.0,89,-99.99,,,-99.99,,2013-03-23 15:43:00,
2013-03-23 15:52:00,24.0,22.0,-100.00,SW,222,17.0,29.0,93,-99.99,,,-99.99,,2013-03-23 15:52:00,
2013-03-23 16:03:00,24.0,23.0,-100.00,SW,217,17.0,29.0,96,-99.99,,,-99.99,,2013-03-23 16:03:00,
2013-03-23 16:12:00,24.0,23.0,-100.00,SW,217,17.0,29.0,96,-99.99,,,-99.99,,2013-03-23 16:12:00,
2013-03-23 16:22:00,24.0,22.0,-100.00,SW,224,13.0,29.0,93,-99.99,,,-99.99,,2013-03-23 16:22:00,
2013-03-23 16:32:00,24.0,22.0,-100.00,SW,224,13.0,29.0,93,-99.99,,,-99.99,,2013-03-23 16:32:00,
2013-03-23 16:42:00,24.0,22.0,-100.00,SW,224,13.0,29.0,93,-99.99,,,-99.99,,2013-03-23 16:42:00,
2013-03-23 16:52:00,23.0,22.0,-100.00,SW,216,10.0,21.0,95,-99.99,,,-99.99,,2013-03-23 16:52:00,
2013-03-23 17:02:00,23.0,22.0,-100.00,SSW,211,11.0,20.0,97,-99.99,,,-99.99,,2013-03-23 17:02:00,
2013-03-23 17:11:00,23.0,22.0,-100.00,SSW,211,11.0,20.0,97,-99.99,,,-99.99,,2013-03-23 17:11:00,
2013-03-23 17:22:00,23.0,22.0,-100.00,SW,216,13.0,24.0,97,-99.99,,,-99.99,,2013-03-23 17:22:00,
2013-03-23 17:32:00,23.0,22.0,-100.00,SW,216,13.0,24.0,97,-99.99,,,-99.99,,2013-03-23 17:32:00,
2013-03-23 17:42:00,23.0,22.0,-100.00,SW,216,13.0,24.0,97,-99.99,,,-99.99,,2013-03-23 17:42:00,
2013-03-23 17:52:00,23.0,22.0,-100.00,SW,216,8.0,16.0,97,-99.99,,,-99.99,,2013-03-23 17:52:00,
2013-03-23 18:02:00,24.0,23.0,-100.00,SW,232,7.0,14.0,97,-99.99,,,-99.99,,2013-03-23 18:02:00,
2013-03-23 18:12:00,24.0,23.0,-100.00,SW,232,7.0,14.0,97,-99.99,,,-99.99,,2013-03-23 18:12:00,
2013-03-23 18:22:00,24.0,23.0,-100.00,SW,232,7.0,14.0,97,-99.99,,,-99.99,,2013-03-23 18:22:00,
2013-03-23 18:32:00,24.0,23.0,-100.00,SW,232,7.0,14.0,97,-99.99,,,-99.99,,2013-03-23 18:32:00,
2013-03-23 18:53:00,22.0,21.0,-100.00,SW,218,14.0,20.0,96,-99.99,,,-99.99,,2013-03-23 18:53:00,
2013-03-23 19:02:00,22.0,21.0,-100.00,SW,222,12.0,26.0,95,-99.99,,,-99.99,,2013-03-23 19:02:00,
2013-03-23 19:12:00,22.0,21.0,-100.00,SW,222,12.0,26.0,95,-99.99,,,-99.99,,2013-03-23 19:12:00,
2013-03-23 19:22:00,21.0,20.0,-100.00,SSW,208,13.0,21.0,95,-99.99,,,-99.99,,2013-03-23 19:22:00,
2013-03-23 19:32:00,21.0,20.0,-100.00,SW,216,11.0,20.0,95,-99.99,,,-99.99,,2013-03-23 19:32:00,
2013-03-23 19:42:00,21.0,20.0,-100.00,SW,216,11.0,20.0,95,-99.99,,,-99.99,,2013-03-23 19:42:00,
2013-03-23 19:52:00,21.0,20.0,-100.00,SW,214,13.0,21.0,95,-99.99,,,-99.99,,2013-03-23 19:52:00,
2013-03-23 20:02:00,21.0,20.0,-100.00,SSW,206,10.0,19.0,95,-99.99,,,-99.99,,2013-03-23 20:02:00,
2013-03-23 20:12:00,21.0,20.0,-100.00,SSW,206,10.0,19.0,95,-99.99,,,-99.99,,2013-03-23 20:12:00,
2013-03-23 20:22:00,21.0,20.0,-100.00,SW,220,7.0,18.0,94,-99.99,,,-99.99,,2013-03-23 20:22:00,
2013-03-23 20:32:00,21.0,20.0,-100.00,SW,220,7.0,18.0,94,-99.99,,,-99.99,,2013-03-23 20:32:00,
2013-03-23 20:42:00,21.0,20.0,-100.00,SW,220,7.0,18.0,94,-99.99,,,-99.99,,2013-03-23 20:42:00,
2013-03-23 21:02:00,22.0,21.0,-100.00,SW,222,5.0,16.0,94,-99.99,,,-99.99,,2013-03-23 21:02:00,
2013-03-23 21:12:00,22.0,21.0,-100.00,SW,222,5.0,16.0,94,-99.99,,,-99.99,,2013-03-23 21:12:00,
2013-03-23 21:22:00,22.0,21.0,-100.00,SW,215,4.0,12.0,94,-99.99,,,-99.99,,2013-03-23 21:22:00,
2013-03-23 21:32:00,22.0,20.0,-100.00,SW,217,5.0,10.0,92,-99.99,,,-99.99,,2013-03-23 21:32:00,
2013-03-23 21:43:00,22.0,20.0,-100.00,SW,217,5.0,10.0,92,-99.99,,,-99.99,,2013-03-23 21:43:00,
2013-03-23 21:53:00,23.0,21.0,-100.00,SSW,211,4.0,9.0,92,-99.99,,,-99.99,,2013-03-23 21:53:00,
2013-03-23 22:02:00,23.0,21.0,-100.00,SW,219,6.0,11.0,92,-99.99,,,-99.99,,2013-03-23 22:02:00,
2013-03-23 22:12:00,23.0,21.0,-100.00,SW,219,6.0,11.0,92,-99.99,,,-99.99,,2013-03-23 22:12:00,
2013-03-23 22:22:00,23.0,21.0,-100.00,SW,219,6.0,10.0,93,-99.99,,,-99.99,,2013-03-23 22:22:00,
2013-03-23 22:32:00,23.0,21.0,-100.00,SW,224,5.0,10.0,91,-99.99,,,-99.99,,2013-03-23 22:32:00,
2013-03-23 22:42:00,23.0,21.0,-100.00,SW,224,5.0,10.0,91,-99.99,,,-99.99,,2013-03-23 22:42:00,
2013-03-23 22:52:00,23.0,21.0,-100.00,SW,227,6.0,10.0,91,-99.99,,,-99.99,,2013-03-23 22:52:00,
2013-03-23 23:02:00,24.0,22.0,-100.00,SW,225,4.0,8.0,91,-99.99,,,-99.99,,2013-03-23 23:02:00,
2013-03-23 23:12:00,24.0,22.0,-100.00,SW,225,4.0,8.0,91,-99.99,,,-99.99,,2013-03-23 23:12:00,
2013-03-23 23:22:00,24.0,22.0,-100.00,SW,225,6.0,10.0,90,-99.99,,,-99.99,,2013-03-23 23:22:00,
2013-03-23 23:32:00,24.0,22.0,-100.00,WSW,245,4.0,8.0,91,-99.99,,,-99.99,,2013-03-23 23:32:00,
2013-03-23 23:42:00,24.0,22.0,-100.00,WSW,245,4.0,8.0,91,-99.99,,,-99.99,,2013-03-23 23:42:00,